Temperature
2 2 2 2 2 2 2 2 2 1 0 1 1 1 1 1 1 1 1 1 1 1 2 2 2 2 2 2 2 2 2 2 1 1 1 1 1 1
2 2 2 2 2 2 2 1 1 1 0 0 1 1 1 0 0 1 1 1 1 1 1 1 1 1 1 1 1 1 1 1 1 1 1 1 1 1
1 1 1 1 1 1 1 1 1 1 0 0 0 -0 -0 -0 -0 -0 0 0 0 0 0 0 0 0 0 0 0 0 0 0 0 0 0 0 -0 -0
1 1 1 1 0 0 1 0 0 0 0 0 -0 -1 -1 -1 -1 -1 -1 -1 -1 -1 -0 -1 -1 -1 -1 -1 -1 -0 -0 -0 -0 -1 -0 -1 -1 -1
0 -0 -0 -0 0 0 0 0 -0 -0 -0 -1 -1 -1 -1 -1 -1 -1 -1 -1 -1 -1 -1 -1 -1 -1 -1 -1 -1 -1 -1 -1 -1 -1 -1 -1 -1 -1
-1 -1 -1 -1 -1 -1 -1 -1 -1 -1 -1 -1 -1 -2 -2 -2 -2 -2 -2 -2 -2 -2 -2 -2 -2 -2 -2 -2 -2 -2 -2 -2 -2 -2 -2 -2 -2 -2
-1 -1 -1 -1 -1 -2 -2 -1 -2 -2 -2 -2 -2 -2 -3 -3 -3 -3 -3 -3 -3 -3 -3 -3 -3 -3 -3 -3 -3 -3 -3 -3 -3 -3 -3 -3 -3 -3
-2 -2 -2 -2 -2 -2 -2 -2 -2 -2 -2 -2 -3 -3 -3 -3 -3 -4 -4 -4 -4 -4 -3 -3 -3 -3 -3 -3 -4 -4 -4 -4 -4 -4 -4 -4 -4 -4
-3 -3 -3 -3 -3 -3 -3 -3 -3 -3 -3 -3 -3 -3 -3 -4 -4 -4 -4 -4 -5 -5 -5 -4 -4 -4 -4 -4 -4 -4 -4 -4 -4 -4 -4 -4 -4 -4
-3 -4 -4 -4 -4 -4 -4 -4 -4 -4 -4 -4 -4 -4 -4 -5 -5 -5 -5 -5 -5 -6 -6 -5 -5 -5 -5 -5 -5 -5 -5 -5 -5 -5 -5 -5 -5 -5
-4 -4 -5 -5 -5 -5 -5 -5 -5 -5 -5 -5 -5 -5 -5 -5 -5 -6 -6 -6 -6 -6 -6 -6 -6 -6 -5 -5 -6 -6 -6 -6 -6 -5 -5 -5 -5 -5
-5 -5 -6 -6 -5 -5 -5 -5 -5 -5 -6 -6 -6 -6 -6 -6 -6 -6 -6 -7 -7 -7 -7 -7 -7 -7 -7 -6 -6 -6 -6 -6 -6 -6 -6 -6 -6 -6
-6 -6 -6 -6 -6 -6 -6 -6 -6 -6 -6 -7 -7 -7 -7 -7 -7 -7 -7 -7 -7 -7 -7 -8 -8 -8 -8 -8 -7 -7 -7 -7 -7 -7 -7 -7 -7 -7
-7 -7 -7 -7 -7 -7 -7 -7 -7 -7 -7 -7 -7 -7 -7 -7 -7 -7 -7 -7 -8 -8 -8 -8 -8 -8 -8 -8 -8 -7 -7 -8 -7 -7 -7 -7 -7 -7
-7 -7 -7 -7 -7 -8 -8 -8 -8 -8 -8 -8 -8 -8 -8 -8 -8 -8 -8 -8 -8 -8 -8 -9 -9 -9 -9 -9 -9 -8 -8 -8 -8 -8 -8 -8 -8 -8
-8 -8 -8 -8 -8 -8 -8 -9 -9 -9 -9 -9 -9 -9 -9 -9 -9 -8 -8 -8 -8 -8 -9 -9 -9 -9 -9 -9 -9 -9 -9 -9 -9 -9 -9 -8 -8 -9
-9 -9 -9 -9 -9 -9 -9 -9 -9 -9 -9 -9 -9 -9 -9 -9 -9 -9 -9 -9 -9 -9 -9 -9 -9 -10 -10 -9 -9 -9 -9 -9 -9 -9 -9 -9 -9 -9
-9 -9 -9 -9 -10 -10 -10 -10 -10 -10 -10 -10 -10 -10 -10 -10 -10 -10 -10 -10 -10 -10 -10 -10 -10 -10 -10 -10 -10 -10 -10 -10 -10 -10 -10 -10 -9 -9
-10 -10 -10 -10 -10 -10 -10 -10 -10 -10 -10 -10 -10 -11 -11 -11 -11 -11 -11 -10 -10 -10 -10 -10 -11 -11 -11 -11 -10 -10 -11 -11 -10 -10 -10 -10 -10 -10
-10 -10 -10 -11 -11 -11 -11 -11 -11 -11 -11 -11 -11 -11 -11 -11 -11 -11 -11 -11 -11 -11 -11 -11 -11 -11 -11 -11 -11 -11 -11 -11 -11 -11 -11 -11 -11 -11
-11 -11 -11 -11 -11 -11 -11 -11 -11 -11 -11 -12 -12 -12 -12 -12 -12 -12 -12 -12 -12 -12 -11 -11 -11 -12 -12 -12 -12 -11 -11 -11 -12 -12 -11 -11 -11 -11
-11 -11 -11 -12 -12 -12 -12 -12 -12 -12 -12 -12 -12 -12 -12 -12 -12 -12 -12 -12 -12 -12 -12 -12 -12 -12 -12 -12 -12 -12 -11 -11 -11 -12 -12 -12 -12 -12
-12 -12 -12 -12 -12 -12 -12 -12 -12 -13 -13 -13 -13 -13 -13 -13 -13 -13 -13 -13 -13 -13 -13 -13 -12 -12 -12 -13 -12 -12 -12 -12 -12 -12 -12 -12 -12 -12
Wind_Speed
3 3 3 2 2 2 2 3 4 2 2 2 1 1 2 1 1 1 2 3 5 5 6 6 6 6 7 8 7 6 6 7 7 7 8 9 8 9
3 4 3 2 3 3 3 2 2 3 2 1 1 1 2 1 2 2 2 4 4 5 5 6 6 6 6 7 7 6 6 7 7 7 8 9 9 9
4 4 4 3 3 3 3 2 2 2 2 1 0 1 1 1 2 3 3 3 4 5 5 6 6 6 6 6 7 7 7 7 8 8 8 9 10 10
5 5 5 4 4 3 3 3 3 2 3 2 1 1 1 2 1 2 3 3 4 5 6 6 6 6 7 7 7 7 7 7 8 8 8 9 10 11
5 6 5 5 5 3 4 4 3 2 2 3 2 1 1 1 1 1 2 2 4 5 5 6 7 7 7 7 8 8 8 8 8 8 8 9 10 11
4 5 5 6 6 5 4 4 4 3 3 3 2 1 1 1 1 1 1 2 3 4 5 6 6 7 8 8 8 8 8 8 8 8 8 9 10 11
4 4 4 5 6 5 4 4 4 4 4 3 3 2 2 2 2 1 1 2 3 2 2 4 5 6 7 7 8 8 9 9 9 9 9 10 10 11
4 4 4 4 5 6 5 5 5 5 5 4 3 4 4 3 2 2 1 1 2 2 2 3 4 3 5 6 7 8 9 9 9 9 10 10 11 11
4 4 3 4 5 4 4 3 3 4 5 4 5 5 4 4 3 2 2 2 3 3 2 3 2 3 5 6 8 9 9 9 9 9 10 10 11 11
3 4 4 4 5 5 4 3 1 1 3 3 3 3 3 3 4 3 2 2 2 2 2 3 3 3 5 6 7 8 8 9 10 9 10 10 11 11
2 3 4 4 6 7 5 4 2 1 1 3 3 3 3 4 3 1 1 2 3 3 1 1 2 3 3 3 6 7 9 10 10 10 10 10 11 11
2 2 3 4 6 6 5 5 4 3 2 1 1 1 2 3 4 3 3 3 2 2 2 1 1 1 3 2 3 6 8 9 10 10 11 11 11 9
2 2 2 5 5 5 4 4 5 3 2 2 2 1 1 0 1 2 2 3 3 3 2 1 1 1 2 3 3 3 5 6 8 9 10 11 11 9
3 2 3 4 4 4 3 4 4 3 2 2 2 1 1 1 1 2 3 3 4 4 5 3 2 2 2 3 3 3 4 6 6 6 7 10 11 12
2 3 3 3 2 2 3 3 2 2 2 2 2 2 2 1 1 1 1 2 3 5 5 5 3 3 3 4 3 3 3 4 5 5 6 7 7 8
1 2 2 2 2 1 1 1 1 2 2 2 2 1 1 1 1 1 1 1 1 2 3 4 4 4 4 4 4 5 4 4 4 5 6 6 8 8
2 1 1 1 1 1 1 1 1 1 1 1 1 1 1 1 1 1 1 1 2 3 3 2 4 6 6 5 4 6 5 5 5 5 5 5 5 8
2 2 2 2 2 2 2 2 1 1 1 1 1 1 1 2 2 2 2 2 3 3 3 3 2 2 2 3 6 6 5 5 4 5 4 5 6 7
1 2 2 2 2 2 2 2 2 2 2 1 1 2 2 2 2 2 2 2 3 3 3 3 2 2 3 5 4 5 4 4 4 5 4 5 6 7
1 1 2 1 1 1 2 2 1 1 1 2 2 2 2 2 3 3 3 3 4 4 4 3 3 4 5 5 4 4 8 6 4 5 5 5 6 10
0 1 1 1 1 2 2 2 2 2 2 2 2 3 2 3 3 4 4 6 4 4 5 5 5 6 3 2 3 4 5 8 8 5 4 5 5 5
0 1 0 1 1 1 2 2 2 2 2 2 3 3 3 3 4 4 4 4 4 4 5 4 4 3 3 4 6 6 5 6 9 11 10 8 4 4
0 0 0 1 1 1 1 2 2 3 3 3 3 3 3 3 4 4 4 4 4 5 4 4 3 3 4 5 6 6 6 6 4 5 6 11 12 14
Wind_Direction
161 159 158 160 146 147 148 156 154 175 237 222 222 226 196 220 262 323 327 335 338 339 341 341 341 343 341 342 339 337 339 341 340 338 338 336 325 326
159 161 162 159 153 150 158 168 155 163 203 227 228 209 195 239 279 309 308 321 325 327 329 333 332 331 329 333 336 327 329 331 331 330 331 330 327 322
171 170 172 162 163 165 161 162 157 147 187 264 280 158 152 180 270 282 278 292 300 312 317 322 322 323 324 325 330 326 322 324 326 324 324 324 325 319
182 176 179 173 171 172 170 173 172 166 168 199 239 238 239 198 231 252 276 288 292 303 306 310 313 315 318 324 323 320 315 317 319 317 317 318 319 317
182 182 182 174 180 180 176 176 173 162 154 173 207 226 242 221 258 276 283 280 294 300 306 308 307 309 312 319 320 318 313 312 313 314 316 316 316 317
180 180 183 184 186 183 185 180 166 157 152 164 183 203 221 249 219 237 313 323 307 290 299 301 307 313 309 312 316 315 310 311 311 312 315 317 317 317
178 182 186 185 185 188 189 176 166 165 165 173 191 200 211 209 219 228 263 313 311 270 300 293 298 298 298 304 310 311 308 307 306 308 310 311 313 316
180 178 177 181 188 198 206 196 184 178 182 190 202 205 212 211 215 229 240 287 291 292 315 297 283 287 287 293 303 310 311 307 304 306 308 307 309 311
172 172 183 184 183 174 192 206 208 211 209 193 197 210 208 203 198 216 231 245 261 273 298 283 283 291 288 293 304 309 312 308 303 305 308 308 308 310
171 173 173 172 179 174 167 167 183 229 222 201 194 206 205 190 188 205 226 262 279 270 263 269 285 289 291 289 299 311 319 319 310 310 312 312 313 313
159 165 170 171 190 191 169 163 168 202 231 225 224 224 234 235 224 179 209 238 276 275 266 256 276 296 289 269 292 311 319 321 320 317 316 316 317 320
153 163 196 198 205 199 175 169 181 198 191 187 211 239 256 251 250 224 210 215 245 267 266 259 269 321 307 285 286 307 313 314 317 321 322 319 319 318
169 171 192 210 214 205 191 180 198 191 177 178 183 176 156 161 240 243 218 210 219 242 258 286 259 259 253 285 294 292 305 310 311 311 315 319 318 315
173 173 189 202 206 204 200 199 208 199 174 177 179 187 198 220 241 236 230 232 232 249 260 247 237 237 260 277 280 291 299 299 297 297 303 312 315 314
172 181 187 195 201 185 207 220 214 191 181 190 197 207 210 209 197 207 218 258 275 272 268 251 239 237 243 255 271 286 300 296 287 291 301 303 301 302
145 173 192 194 183 182 217 227 197 195 196 202 204 202 182 175 204 225 244 261 272 284 275 263 255 237 248 259 263 274 276 278 292 294 294 293 294 293
158 129 136 142 160 167 172 172 166 183 205 187 180 180 198 211 237 238 241 241 243 261 279 286 276 259 250 249 259 263 269 275 279 288 296 299 292 290
165 156 177 182 188 193 195 196 192 195 191 193 193 194 213 230 238 239 233 234 248 259 264 268 286 302 303 274 240 252 264 270 283 287 286 291 294 293
171 171 184 185 185 184 193 201 209 204 190 200 217 216 217 231 242 246 246 247 255 260 267 259 242 230 261 279 282 245 256 278 288 290 283 279 282 289
154 175 175 175 176 189 200 202 196 190 194 204 219 227 227 229 238 243 247 249 255 258 265 259 236 227 233 252 268 280 268 259 266 276 283 286 282 289
161 167 167 178 191 198 204 205 204 212 214 214 224 230 228 230 240 245 248 257 259 256 259 259 252 261 255 242 270 275 275 271 272 272 276 290 296 297
189 182 186 193 195 199 207 208 213 223 225 226 230 232 232 231 238 242 245 251 253 255 261 266 271 267 229 235 257 272 285 293 296 293 278 267 267 272
222 210 212 222 229 220 219 221 225 230 229 227 231 234 234 240 246 247 246 248 255 261 268 272 269 253 245 241 254 268 274 282 289 293 287 287 284 283
Height
1516 1518 1520 1521 1523 1525 1526 1527 1528 1528 1529 1530 1531 1532 1533 1533 1533 1533 1534 1534 1534 1534 1533 1533 1532 1532 1531 1530 1530 1530 1529 1528 1528 1527 1527 1526 1525 1525
1512 1514 1516 1517 1519 1521 1522 1523 1524 1525 1525 1526 1528 1529 1530 1530 1530 1530 1530 1531 1531 1530 1530 1529 1529 1529 1528 1527 1526 1526 1525 1525 1524 1524 1523 1522 1522 1521
1508 1510 1511 1513 1515 1516 1518 1519 1520 1521 1521 1523 1525 1525 1526 1527 1527 1527 1527 1527 1527 1527 1527 1526 1526 1525 1525 1524 1522 1522 1522 1521 1521 1520 1519 1519 1518 1517
1503 1505 1507 1509 1510 1512 1513 1515 1516 1517 1518 1518 1520 1521 1522 1523 1523 1523 1523 1524 1524 1523 1523 1523 1522 1522 1521 1520 1519 1518 1518 1517 1517 1516 1516 1515 1514 1513
1499 1501 1503 1504 1506 1507 1509 1511 1512 1513 1514 1515 1516 1517 1518 1519 1519 1520 1520 1520 1520 1519 1519 1519 1518 1518 1517 1516 1515 1514 1514 1514 1513 1512 1511 1511 1510 1509
1495 1497 1498 1500 1501 1503 1505 1506 1507 1509 1510 1511 1512 1513 1514 1515 1516 1515 1515 1515 1515 1515 1515 1514 1514 1513 1513 1512 1511 1510 1510 1509 1509 1508 1507 1506 1505 1504
1490 1492 1494 1496 1497 1499 1501 1502 1503 1504 1505 1507 1508 1509 1509 1510 1511 1511 1511 1511 1511 1511 1511 1510 1510 1509 1509 1508 1507 1506 1506 1505 1504 1504 1503 1502 1501 1500
1486 1488 1490 1491 1493 1495 1496 1497 1499 1500 1501 1502 1503 1504 1505 1506 1507 1507 1507 1506 1506 1507 1507 1506 1506 1505 1504 1504 1503 1502 1501 1501 1500 1499 1498 1497 1496 1495
1482 1484 1485 1487 1489 1490 1492 1493 1494 1495 1497 1498 1499 1500 1501 1502 1503 1503 1503 1503 1502 1502 1502 1501 1501 1500 1500 1499 1499 1498 1497 1496 1495 1494 1493 1492 1491 1490
1478 1480 1481 1483 1485 1486 1488 1489 1490 1491 1492 1494 1495 1496 1497 1498 1499 1499 1499 1499 1499 1499 1498 1497 1497 1496 1496 1496 1495 1494 1493 1492 1490 1489 1488 1488 1486 1485
1475 1476 1478 1479 1481 1483 1484 1485 1486 1487 1489 1490 1491 1492 1493 1494 1495 1495 1495 1495 1494 1494 1494 1494 1493 1492 1491 1491 1491 1490 1488 1487 1486 1485 1484 1483 1482 1480
1471 1472 1474 1476 1477 1479 1480 1481 1481 1483 1484 1485 1486 1487 1488 1489 1490 1491 1491 1490 1490 1490 1490 1490 1489 1488 1487 1486 1486 1485 1484 1483 1482 1480 1479 1478 1477 1475
1467 1468 1470 1472 1474 1475 1476 1477 1478 1479 1480 1481 1482 1483 1484 1485 1485 1486 1486 1487 1486 1486 1487 1487 1486 1485 1484 1482 1481 1481 1480 1479 1477 1476 1475 1473 1472 1471
1463 1465 1467 1469 1470 1472 1473 1474 1475 1476 1476 1477 1478 1478 1479 1480 1481 1481 1482 1483 1483 1483 1483 1483 1482 1482 1480 1478 1477 1476 1476 1475 1473 1471 1470 1469 1468 1466
1460 1462 1464 1465 1467 1468 1469 1470 1471 1472 1472 1473 1473 1474 1475 1476 1477 1478 1478 1478 1479 1479 1478 1478 1478 1478 1477 1475 1473 1472 1471 1470 1469 1467 1466 1464 1463 1461
1458 1459 1460 1462 1463 1464 1465 1466 1467 1468 1469 1469 1470 1471 1472 1472 1473 1473 1473 1473 1474 1474 1474 1474 1474 1474 1472 1472 1470 1468 1468 1466 1465 1463 1462 1460 1459 1457
1455 1456 1457 1458 1459 1460 1462 1463 1464 1464 1465 1465 1466 1467 1467 1468 1469 1469 1469 1469 1469 1469 1469 1470 1469 1469 1468 1467 1466 1465 1464 1462 1461 1459 1457 1455 1454 1453
1452 1452 1453 1455 1456 1457 1458 1459 1460 1460 1461 1462 1462 1463 1464 1464 1465 1465 1465 1465 1465 1465 1465 1465 1465 1464 1463 1462 1462 1460 1459 1458 1456 1455 1453 1451 1449 1448
1449 1450 1451 1452 1452 1453 1454 1455 1456 1457 1457 1458 1459 1459 1460 1460 1461 1461 1461 1461 1461 1461 1461 1461 1460 1459 1458 1457 1457 1457 1455 1453 1452 1450 1449 1447 1444 1443
1446 1447 1448 1448 1449 1450 1451 1452 1452 1453 1454 1454 1455 1455 1456 1456 1457 1457 1457 1457 1457 1456 1456 1456 1456 1455 1454 1454 1452 1452 1452 1450 1447 1445 1444 1442 1441 1439
1443 1444 1445 1445 1446 1447 1447 1448 1449 1449 1450 1450 1450 1451 1452 1452 1452 1452 1452 1452 1452 1452 1452 1451 1451 1452 1451 1450 1448 1446 1446 1446 1444 1442 1440 1438 1435 1433
1440 1441 1441 1442 1442 1443 1444 1444 1445 1445 1446 1446 1446 1447 1447 1447 1448 1448 1448 1448 1448 1447 1447 1447 1447 1447 1446 1445 1443 1441 1441 1440 1440 1438 1436 1435 1432 1429
1438 1438 1438 1438 1439 1439 1440 1440 1440 1441 1441 1441 1442 1442 1442 1443 1443 1443 1443 1443 1443 1443 1443 1442 1442 1441 1440 1440 1438 1437 1436 1435 1434 1432 1431 1430 1429 1427